Hourly Data Report for October 02, 2017

All times are specified in Local Standard Time (LST). Add 1 hour to adjust for Daylight Saving Time where and when it is observed.

INGONISH BEACH RCS
NOVA SCOTIA

46°39'46.001" N
60°24'23.000" W
10.00 m
8202502
71027
XIB

Download Data

Hourly Data (October 2017)
Hourly Data Report for October 2, 2017
Temp Definition
°C
Dew Point Temp Definition
°C
Rel Hum Definition
%
Wind Dir Definition
10's deg

Wind Spd Definition
km/h
Visibility Definition
km
Stn Press Definition
kPa
Hmdx Definition


Wind Chill Definition


Weather Definition


TIME
00:00 6.6 4.8 88 25 4   101.61     LegendNANA
01:00 10.2 7.4 83 27 5   101.61     LegendNANA
02:00 10.2 6.3 77 28 3   101.61     LegendNANA
03:00 7.4 5.3 87 27 3   101.61     LegendNANA
04:00 6.6 4.8 89 21 5   101.62     LegendNANA
05:00 7.6 6.1 90 33 2   101.74     LegendNANA
06:00 6.7 4.7 87 27 3   101.84     LegendNANA
07:00 7.6 4.8 83 28 2   101.92     LegendNANA
08:00 11.3 5.3 67 2 4   102.00     LegendNANA
09:00 11.3 2.3 54 1 11   102.08     LegendNANA
10:00 11.1 1.6 52 1 11   102.14     LegendNANA
11:00 10.5 2.6 58 36 8   102.20     LegendNANA
12:00 10.6 2.7 58 35 9   102.24     LegendNANA
13:00 11.7 1.0 48 1 12   102.23     LegendNANA
14:00 10.1 1.2 54 1 11   102.30     LegendNANA
15:00 9.9 1.3 55 1 10   102.34     LegendNANA
16:00 9.7 2.6 61 35 9   102.40     LegendNANA
17:00 7.9 3.2 72 34 5   102.52     LegendNANA
18:00 7.5 3.2 74 1 4   102.62     LegendNANA
19:00 8.1 2.5 68 35 6   102.67     LegendNANA
20:00 8.3 3.0 70 1 7   102.77     LegendNANA
21:00 9.0 2.5 64 36 9   102.80     LegendNANA
22:00 9.6 2.4 61 1 11   102.83     LegendNANA
23:00 9.7 1.9 58 36 11   102.83     LegendNANA

Notes on Data Quality.

Legend

  • E = Estimated
  • M = Missing
  • NA = Not Available
  • ‡ = Partner data that is not subject to review by the National Climate Archives
Date modified: